Location: Newark
(48.6461°N, 4.3644°W)
Time: 02:02:09
(UTC+00:00)

A-11 Canister half - Pass Details

Date: 27 January 2020
Orbit: 1517 x 1683 km, 47.2° (Epoch: 25 February)

Event Time Altitude Azimuth Distance (km) Brightness Sun altitude
Exits shadow 04:19:37 65° 179° (S) 1,650 8.9 -35.2°
Drops below altitude 10° 04:28:06 10° 123° (ESE) 3,699 11.5 -33.9°
Sets 04:31:11 0° 120° (ESE) 4,695 12.2 -33.4°
